Location: ??????????
(54.7560°N, 39.1389°E)
Time: 03:24:14
(UTC+00:00)

Cosmos 614 Rocket - Pass Details

Date: 19 May 2025
Orbit: 729 x 758 km, 74.1° (Epoch: 14 June)

Event Time Altitude Azimuth Distance (km) Brightness Sun altitude
Exits shadow 23:34:37 12° 195° (SSW) 2,177 5.7 -9.9°
Maximum altitude 23:39:30 70° 113° (ESE) 810 4.2 -9.5°
Drops below altitude 10° 23:44:41 10° 31° (NNE) 2,295 8.2 -9.1°
Sets 23:47:03 0° 29° (NNE) 3,221 9.6 -8.9°
